AETHER-1

导读 | 星芒AI

AETHER-1 是一颗由美国初创公司 Aether 部署的卫星,旨在通过低轨卫星网络提供高速、低延迟的互联网服务。该卫星采用先进通信技术,支持全球范围内的宽带连接,特别关注偏远和网络覆盖不足的地区。AETHER-1 是 Aether 计划部署的数百颗卫星中的首颗,标志着其构建下一代全球通信基础设施的重要一步。

基本信息
目录编号:
58281
目录名称:
AETHER-1
国际标识:
2023-174AB
轨道中心:
EARTH
卫星名称:
AETHER-1
卫星全名:
--
卫星状态:
在轨 (已飞行765 天)
发射日期:
2023-11-11 UTC
国别 :
加拿大 (CA)
星等 :
--
轨道信息
数据来源 国际轨道数据
星历时间: 2025-12-15T01:10:41+0800
1天前
查看轨道信息
半长轴: 6801.736km
偏心率: 0.0006588
轨道倾角: 97.403°
近地点辐角 96.138°
升交点赤经 70.028°
平近点角 264.062°
近地点: 419.12km
远地点: 428.082km
周期: 93.044分钟
每日圈数: 15.476514
详细信息
使用方式:
暂无
2D轨道图
3D轨道图
轨道高度分析图
轨道倾角分析图
轨道综合分析图
查看轨道综合分析图